Regional Weather Roundup
Issued by NWS

Home | Current Version | Previous Version | Graphics & Text | Print | Product List | Glossary On
Versions: 1 2 3 4 5 6 7 8 9 10 11 12 13 14 15 16 17 18 19 20 21 22 23 24 25 26 27 28 29 30 31 32 33 34 35 36 37 38 39 40 41 42 43 44 45 46 47 48 49 50
000
ASUS43 KBIS 121210
RWRND

NORTH DAKOTA REGIONAL WEATHER ROUNDUP
NATIONAL WEATHER SERVICE BISMARCK ND
600 AM CST TUE DEC 12 2017

NOTE: "FAIR" INDICATES FEW OR NO CLOUDS BELOW 12,000 FEET WITH NO
SIGNIFICANT WEATHER AND/OR OBSTRUCTIONS TO VISIBILITY.


NDZ001>003-009>011-017-121300-
NORTHWEST NORTH DAKOTA

CITY           SKY/WX    TMP DP  RH WIND       PRES   REMARKS
WILLISTON      CLEAR     28  23  80 SW6       30.09F
MINOT          CLOUDY    30  24  78 SW9       30.03F
MINOT AFB      CLOUDY    30  25  79 W15       30.01F WCI  19
$$

NDZ018>021-031>035-040>046-121300-
SOUTHWEST NORTH DAKOTA

CITY           SKY/WX    TMP DP  RH WIND       PRES   REMARKS
BISMARCK       CLOUDY    20  18  92 SW5       30.13F WCI  13
6HR MIN TEMP:  19; 6HR MAX TEMP:  26;

DICKINSON      CLOUDY    25  21  85 SW9       30.09F WCI  15
GARRISON         N/A     25  22  88 W8        30.07F WCI  16
6HR MIN TEMP:  24; 6HR MAX TEMP:  31;

HETTINGER ARPT CLOUDY    21  18  88 CALM      30.16F
$$

NDZ004>008-012>016-024-026-027-054-121300-
NORTHEAST NORTH DAKOTA

CITY           SKY/WX    TMP DP  RH WIND       PRES   REMARKS
GRAND FORKS    CLOUDY    19  16  88 S8        30.11F WCI   9
GRND FRKS AFB  CLOUDY    22  18  85 S7        30.09F WCI  13
DEVILS LAKE    CLOUDY    26  24  92 SW8       30.05F WCI  18
$$

NDZ022-023-025-028>030-036>039-047>053-121300-
SOUTHEAST NORTH DAKOTA

CITY           SKY/WX    TMP DP  RH WIND       PRES   REMARKS
FARGO          CLOUDY    16  12  84 S9        30.14F WCI   4
6HR MIN TEMP:   4; 6HR MAX TEMP:  16;

JAMESTOWN      PTCLDY    25  23  92 SW9       30.10F WCI  15
$$




USA.gov is the U.S. government's official web portal to all federal, state and local government web resources and services.